Criado pela BM&FBOVESPA, o BDRX (Índice de BDRs Não Patrocinados - GLOBAL) tem por objetivo ser o indicador do desempenho médio das cotações dos BDRs Não Patrocinados, autorizados à negociação no Mercado Bovespa. BDR é a sigla para Brazilian Depositary Receipt, que são recibos de ações estrangeiras negociados na bolsa de valores brasileira.

O BDRX é um índice de ações de retorno total, procurando refletir não apenas as variações nos preços dos ativos integrantes do índice no tempo, mas também o impacto que a distribuição de proventos por parte das companhias emissoras desses ativos teria no retorno do índice.

Resumo Atual do BDRX - Índice BDR Não Patrocinado

CODBDRX
ULT4.775,57
VAR-5,86
VAR (%)-0,12%
HORA11:01:00
ABE.4.780,0402
FEC.4.781,423

BDRX - Índice BDR Não Patrocinado Mensal

BDRX - Índice BDR Não Patrocinado Anual

 

Composição do BDRX

A carteira teórica de ativos do Índice de BDRs Não Patrocinados é composta de ações e units de ações de companhias listadas na BM&FBOVESPA. Para compor o BDRX, as ações e units de ações devem atender aos seguintes critérios de inclusão:

- Ser um BDR Não Patrocinado listado na BM&FBOVESPA.

- Possuir formador de mercado.

- Não ser classificado como ativo penny stock, cujo valor médio ponderado durante a vigência da carteira teórica anterior ao rebalanceamento, desconsiderando-se o último dia desse período, tenha sido inferior a R$ 1,00 (um real).

Os BDRs Não Patrocinados que atenderem aos critérios desta metodologia serão incluídos no BDRX para a abertura de seu primeiro dia de listagem na BM&FBOVESPA.

Para que sua representatividade se mantenha ao longo do tempo, a composição da carteira teórica do BDRX é reavaliada a cada 4 (quatro) meses.

 

Ponderação do BDRX

No BDRX, os ativos são ponderados pelo valor de mercado do free float (ativos que se encontram em circulação) da espécie pertencente à carteira, com limite de participação baseado na liquidez.

Ressalta-se que a participação dos ativos de uma companhia no índice (considerando todas as espécies e classes de ações ou units que tenham como lastro tais ações da companhia, conforme o caso) não poderá ser superior a 20% (vinte por cento), quando de sua inclusão ou nas reavaliações periódicas. Caso isso ocorra, serão efetuados ajustes para adequar o peso dos ativos da companhia a esse limite, redistribuindo-se o excedente proporcionalmente aos demais ativos da carteira.

 

Cálculo do BDRX

A carteira teórica do índice será valorizada, a cada intervalo de cálculo, pela multiplicação da quantidade teórica de cada BDR pelo preço do último negócio registrado dentro desse intervalo ou, na ausência deste, por seu valor de referência, que é a média aritmética dos preços das melhores ofertas de compra e de venda registradas no momento do cálculo.

Clique Aqui para acompanhar a variação do BDRX em tempo real.

Composição Atual do BDRX - Índice BDR Não Patrocinado

Nome Ativo Último Compra Venda Variação Variação % Hora
American Air DRNAALL34160,98166,66170,820+0,00%00:05:05
AppleAAPL3456,065555,770+0,00%11:00:12
Abbvie DRNABBV34302,6314,09318,870+0,00%00:05:05
AbbottABTT3445,5245,5545,550+0,00%00:05:05
AccentureACNB34479,51490,53497,830+0,00%00:05:05
Aetna Inc DRNAETB34588,24596,93601,820+0,00%00:05:05
Aig Group DRNAIGB34191,9190,67193,620+0,00%00:05:05
AmgenAMGN34581,01581,01578,990+0,00%00:05:05
AmazonAMZO341.900,141.892,441.927,40+0,00%11:00:55
Andeavor DRNANDV34176,3180,77185,280+0,00%00:05:05
ArcelorMittalARMT3451,7649,72490+0,00%00:05:05
Arconic DRNARNC3478,2578,2578,250+0,00%00:05:05
Att Inc DRNATTB34120,58117,96121,440+0,00%00:05:05
AvonAVON343,023,173,480+0,00%10:59:00
American ExpressAXPB34322,05322,26327,080+0,00%00:05:05
Best Buy DRNBBYY34201,66209,27212,610+0,00%00:05:05
Berkshire DRNBERK34643,5636,76649,470+0,00%10:59:58
Biogen DRNBIIB34173,19178,01180,910+0,00%00:05:05
Blackrock DRNBLAK34258,55281,542860+0,00%00:05:05
Bristol MyersBMYB34205,96204,74207,820+0,00%00:05:05
Bank AmericaBOAC3495,8694,7793,640+0,00%00:05:05
BoeingBOEI34892,61933,2946,850+0,00%00:05:05
BNY MellonBONY34167,85178,18180,870+0,00%00:05:05
Boston Prop DRNBOXP3440,9940,9940,990+0,00%00:05:05
CaterpillarCATP34460,2450,2460,20+0,00%00:05:05
Chesapeake DRNCHKE3416,2411,9512,280+0,00%00:05:05
ChevronCHVX34193,8186,78195,670+0,00%00:05:05
Celgene CorpCLGN34338,16341,67338,160+0,00%00:05:05
ComcastCMCS34125,83129,06125,830+0,00%00:05:05
Coca ColaCOCA34149,85149,85149,850+0,00%00:05:05
ColgateCOLG34237,98235,41237,980+0,00%00:05:05
CophillipsCOPH3442,1542,1542,150+0,00%00:05:05
Coty IncCOTY3428,3428,3428,340+0,00%00:05:05
Costco DRNCOWC34155,3153,73156,150+0,00%00:05:05
CiscoCSCO34123,55119,6119,60+0,00%00:05:05
CitigroupCTGP34249,25251,07249,250+0,00%00:05:05
Cognizant DRNCTSH34230,74235,13238,720+0,00%00:05:05
Cvs Health DRNCVSH34115,75119,36121,370+0,00%00:05:05
Delta DRNDEAI34172,31175,78178,510+0,00%00:05:05
Danaher CorpDHER3477,0775,2477,70+0,00%10:09:29
Walt DisneyDISB34349,1344,05353,470+0,00%00:05:05
Dow ChemicalDOWB34202,6202,73206,110+0,00%00:05:05
Duke Energy DRNDUKB34273,21287,35291,680+0,00%00:05:05
E I Du Pont DRNDUPO34259,5230,23235,980+0,00%00:05:05
EbayEBAY3458,1455,4455,440+0,00%00:05:05
Exprescripts DRNESRX34109,47111,24113,080+0,00%00:05:05
Exxon MobilEXXO3468,2967,5568,290+0,00%00:05:05
FacebookFBOK34283,3280,75281,940+0,00%00:05:05
FreeportFCXO3447,545,1147,50+0,00%00:05:05
Ford MotorsFDMO3441,5441,1741,20+0,00%00:05:05
Fedex CorpFDXB34678,1755,23775,920+0,00%00:05:05
FemsaFMXB34301,5302,12311,070+0,00%00:05:05
First Solar DRNFSLR3493,11113,42116,250+0,00%00:05:05
Gen DynamicsGDBR34662,52657,09666,170+0,00%00:05:05
GEGEOO3458,6457,5458,750+0,00%10:59:31
Gilead DRNGILD34118121,13123,130+0,00%00:05:05
General Mot DRNGMCO34141,24137,4139,610+0,00%00:05:05
Alphabet DRNGOGL34138,68135,97138,680+0,00%10:57:09
Alphabet DRNGOGL35137,29134,52137,590+0,00%10:09:28
Gopro DRNGPRO3429,0126,2526,90+0,00%00:05:05
Gap DRNGPSI34110,91110,02111,780+0,00%00:05:05
Goldman SachsGSGI3481,6579,581,650+0,00%00:05:05
HalliburtonHALI34144,63144,63141,750+0,00%00:05:05
Home DepotHOME34302,68301,03302,680+0,00%00:05:05
HoneywellHONB34502,34503,2509,990+0,00%00:05:05
HP CompanyHPQB3469,269,269,20+0,00%00:05:05
Hershey CoHSHY3473,3369,5973,330+0,00%00:05:05
IBMIBMB34492,05505,52512,940+0,00%00:05:05
IntelITLC34140,97140,97140,930+0,00%00:05:05
Jc Penney DRNJCPC3410,210,2210,470+0,00%00:05:05
JohnsonJNJB34463,01458,51463,010+0,00%00:05:05
JP MorganJPMC34174,3173,3174,30+0,00%00:05:05
Kraft HeinzKHCB34259,15253,9262,210+0,00%10:09:29
Kimberly ClKMBB34396,55395400,60+0,00%00:05:05
L BrandsLBRN3446,646,0647,940+0,00%00:05:05
LillyLILY34137,4136,73139,250+0,00%00:05:05
LockheedLMTB341.017,111.032,751.047,010+0,00%00:05:05
Macy S DRNMACY3483,9983,8885,310+0,00%00:05:05
McdonaldsMCDC34143,13139,97143,130+0,00%00:05:05
Mondelez IntMDLZ3470,6370,6370,630+0,00%00:05:05
Medtronic DRNMDTC34131132,37134,50+0,00%00:05:05
Metlife IncMETB34174,15174,63179,790+0,00%00:05:05
3MMMMC34197,07196,95197,070+0,00%00:05:05
MosaicMOSC3438,7138,7140,10+0,00%00:05:05
MerckMRCK34179,72179,72176,260+0,00%00:05:05
Morgan StanleyMSBR34173,6171,08176,140+0,00%00:05:05
MastercardMSCD34494,3491,42494,30+0,00%00:05:05
MicrosoftMSFT34276,43276,43267,080+0,00%00:05:05
NetflixNFLX34611,81611,81601,480+0,00%00:05:05
NikeNIKE34190,9199,55203,370+0,00%10:09:29
OracleORCL34159,92159,92159,180+0,00%00:05:05
Pepsico IncPEPB34384,61380,75384,610+0,00%00:05:05
PfizerPFIZ34117,9116,23117,90+0,00%00:05:05
Procter GamblePGCO34295,3288,4294,440+0,00%00:05:05
QualcommQCOM34212,95212,95212,950+0,00%00:05:05
Transocean DRNRIGG3435,8232,5533,270+0,00%00:05:05
Ross Stores DRNROST34127,17125,38127,420+0,00%00:05:05
Sanchez Ener DRNSANC341415,8116,960+0,00%10:41:03
StarbucksSBUB34193,35191,3193,350+0,00%00:05:05
Schwab DRNSCHW34164,04167,89170,570+0,00%00:05:05
SchlumbergerSLBG34211,47211,47211,470+0,00%00:05:05
Sprint DRNSPRN3418,1617,7218,20+0,00%00:05:05
Salesforce DRNSSFO34164,71169,271720+0,00%00:05:05
Texas IncTEXA34323,61322,05323,610+0,00%00:05:05
Target CorpTGTB34202,74200,46203,570+0,00%00:05:05
TiffanyTIFF34317,8303,44317,80+0,00%00:05:05
Thermfischer DRNTMOS34148,2151,79157,990+0,00%00:05:05
Travelers DRNTRVC34220,69217,19222,610+0,00%00:05:05
Tesla Inc DRNTSLA34253,85254,74261,10+0,00%00:05:05
TwitterTWTR3433,7434,2835,130+0,00%00:05:05
Time WarnerTWXB34298,56291,94298,560+0,00%00:05:05
Ubs Group DRNUBSG3457,0556,958,320+0,00%00:05:05
Union PacificUPAC34106,69106,691070+0,00%00:05:05
UPSUPSS3495,795,795,70+0,00%00:05:05
US BancorpUSBC34168,75170,65170,650+0,00%00:05:05
Us Steel DRNUSSX3498,82108,31110,030+0,00%00:05:05
United TechUTEC34377,95377,95377,950+0,00%00:05:05
VerizonVERZ34164167,15166,690+0,00%00:05:05
Visa IncVISA34369,07369,07372,890+0,00%00:05:05
Valero Ener DRNVLOE34137,43143,19145,450+0,00%00:05:05
Wal MartWALM3479,5979,4179,590+0,00%00:05:05
Wells FargoWFCO34197,67197,67190,550+0,00%00:05:05
Western UnionWUNI3464,4663,9564,460+0,00%00:05:05
Xerox CorpXRXB3496,4396,7298,250+0,00%00:05:05

Notícias

Bovespa: Índice Ibovespa abre praticamente estável em +0,06% nesta segunda-feira, 11 de dezembro de 2017

©
SÃO PAULO, 11 de dezembro de 2017 (ADVNEWS) – O Índice Bovespa, principal indicador do mercado de...
 

Bolsa de Tóquio: Índice Nikkei 225 fecha em alta de +0,56% nesta segunda-feira, 11 de dezembro de 2017

TÓQUIO, 11 de dezembro de 2017 (ADVNEWS) – O NIKKEI 225, principal índice de ações da Bolsa de...
 

Bolsa de Londres: Índice FTSE 100 abre estável nesta segunda-feira, 11 de dezembro de 2017

Londres, 11 de dezembro de 2017 (ADVNEWS) – O Índice FTSE 100, principal indicador do mercado de...
 

Bolsa de Paris: Índice CAC 40 abre praticamente estável em +0,23% nesta segunda-feira, 11 de dezembro de 2017

Paris, 11 de dezembro de 2017 (ADVNEWS) – O Índice CAC 40, principal indicador do mercado de ações...
 
Seu Histórico Recente
BOV
VALE5
Vale PNA
BOV
IBOV
iBovespa
BOV
PETR4
Petrobras
BOV
IGBR3
IGB SA
FX
USDBRL
Dólar EUA ..
Ações já vistas aparecerão nesta caixa, facilitando a volta para cotações pesquisadas anteriormente.

Registre-se agora para criar sua própria lista de ações customizada.

Ao acessar os serviços da ADVFN você estará de acordo com os Termos e Condições

P:32 V:br D:20171211 13:16:24